Theta_e
329 330 331 331 331 332 333 333 332 332 332 331 331 330 332 333 334 335 338 339 339 338 338 337 335 334 333 332 332 332 331 331 332 333 334 336 337 337 337 338 337 337 337 335 332 335 332 332 331 332 331 329 328 329 328 327 326 324 321 319 315 313 313 314 313 312 309 307 308 308 308 312 314 310 309 309 310 310 310 308 310 308 307 310 309
329 328 327 329 330 330 332 332 331 330 331 331 330 330 331 334 334 335 337 338 338 338 338 337 336 335 334 333 332 331 331 331 331 332 334 335 336 337 337 337 337 337 337 335 333 333 331 331 331 331 330 328 328 328 327 329 325 322 319 317 318 314 312 313 312 311 310 305 304 305 308 309 313 308 308 308 308 308 308 308 308 306 307 307 307
327 328 328 329 330 330 331 331 331 332 331 330 330 330 331 333 334 335 336 337 338 338 338 337 336 336 335 331 333 329 331 333 333 334 335 334 335 336 336 336 336 336 336 335 333 332 331 331 330 330 329 328 326 325 327 325 323 321 319 317 315 318 316 314 313 314 311 309 309 306 303 303 307 308 308 307 308 308 307 306 307 305 306 306 307
325 326 326 328 330 331 330 330 330 331 331 330 330 329 330 332 334 335 336 337 337 338 338 337 337 334 333 333 333 332 330 333 332 333 334 334 334 336 335 334 334 335 336 335 333 332 331 331 329 328 327 327 325 325 324 323 322 321 320 319 317 314 313 313 316 315 311 310 308 308 305 304 302 303 303 305 306 306 307 307 307 305 306 305 306
325 326 326 327 328 329 330 330 331 330 330 330 330 329 330 331 333 335 335 336 337 338 338 337 336 333 332 331 332 331 332 332 331 331 333 334 334 334 334 333 333 333 334 334 333 330 329 329 328 327 326 326 325 325 324 323 323 322 321 319 317 316 313 313 315 316 314 318 312 306 306 305 305 305 301 303 306 305 304 306 312 306 305 306 306
326 325 326 327 329 330 330 330 329 330 330 331 331 331 330 331 333 334 335 336 336 337 338 337 335 333 330 329 328 329 328 328 329 329 330 332 333 334 334 333 331 332 332 332 332 330 328 326 327 326 325 324 325 324 324 322 322 321 321 320 318 319 316 312 312 318 316 318 314 313 313 310 306 306 304 301 306 308 307 309 307 304 307 307 303
323 324 325 326 328 329 330 330 330 330 331 332 332 331 330 331 333 334 335 335 336 337 337 336 334 334 332 332 331 330 329 329 329 331 332 334 335 333 332 331 330 330 330 330 329 329 327 325 325 325 324 323 325 323 322 322 321 322 322 320 319 319 317 313 313 313 316 315 314 314 315 312 310 305 304 299 299 304 304 303 305 304 306 306 303
323 324 325 327 328 329 329 330 331 331 332 332 331 331 329 330 332 333 334 335 336 336 336 336 335 333 332 332 332 331 330 329 329 330 332 334 333 332 330 329 329 329 328 327 327 327 325 323 323 323 323 322 324 322 322 321 320 320 322 321 320 320 318 317 314 314 316 314 313 312 310 309 307 306 306 308 302 300 300 302 302 303 305 303 305
323 323 324 326 328 329 331 331 332 332 332 331 331 331 330 330 331 333 334 335 335 336 336 335 336 334 333 332 331 332 331 329 330 330 331 332 331 330 329 328 328 327 327 326 326 326 327 323 322 322 322 322 324 320 320 319 319 319 318 317 319 319 318 318 316 314 316 312 309 306 306 306 305 306 305 305 304 300 299 299 302 302 303 303 304
324 325 326 327 328 330 332 333 332 332 332 332 331 331 330 329 330 332 333 334 335 335 335 335 335 334 332 332 331 329 329 329 329 329 329 330 329 328 328 326 326 325 324 324 324 324 325 323 321 321 321 321 322 318 317 316 316 316 317 317 318 318 317 318 317 315 316 314 314 309 307 306 306 306 305 302 302 304 304 299 300 300 299 302 303
324 325 326 327 329 330 331 331 332 332 332 331 330 330 329 329 329 330 332 334 335 335 335 334 334 334 333 332 331 329 328 328 328 327 328 328 328 326 326 325 325 325 323 322 323 323 322 323 321 320 320 323 320 315 315 315 314 314 313 314 315 316 314 315 315 313 314 312 310 310 311 309 308 307 305 304 305 301 301 300 300 299 297 299 304
323 325 326 327 328 329 330 330 330 330 329 329 329 329 329 329 329 329 331 333 334 335 334 334 334 334 333 332 331 330 329 329 328 327 327 328 327 325 325 324 323 322 321 320 320 320 321 320 320 319 319 318 315 315 314 313 312 311 311 311 310 310 312 314 312 310 309 309 308 309 310 309 309 310 307 306 305 304 306 301 299 299 299 301 302
320 324 326 327 327 328 328 329 330 329 329 328 328 328 329 329 329 329 330 332 333 334 334 334 334 333 333 332 332 331 330 330 329 328 328 327 327 325 323 323 321 320 319 319 318 317 319 318 316 316 316 316 314 312 312 311 310 310 310 309 308 309 310 311 310 309 308 309 308 304 306 306 307 304 306 306 304 303 303 299 299 298 300 299 300
318 323 326 327 327 328 329 330 330 330 329 329 329 328 328 329 329 329 330 331 333 333 334 333 333 334 333 333 332 331 330 330 330 328 327 328 327 325 324 323 321 322 320 319 317 316 318 318 317 316 315 314 313 312 311 310 310 309 308 307 307 306 306 307 307 306 305 305 304 304 303 303 302 302 303 303 302 302 301 302 298 296 297 298 298
314 320 324 326 327 328 329 330 330 330 330 330 329 328 328 328 329 329 329 331 332 333 333 333 333 333 333 333 332 331 331 330 330 329 328 328 327 326 325 324 323 322 320 319 316 316 316 316 315 314 312 312 312 312 311 310 310 309 307 306 306 304 304 305 304 304 303 302 302 302 302 301 301 300 301 302 302 305 303 301 300 298 297 297 298
311 318 322 325 327 328 329 330 330 331 330 330 329 329 328 328 329 329 330 331 332 332 333 333 333 333 333 331 331 331 331 330 329 329 329 328 327 326 324 323 323 321 319 317 315 315 314 314 314 312 311 311 311 310 309 309 308 307 306 305 305 305 304 303 303 303 302 302 302 302 302 300 301 300 300 300 299 300 301 302 303 302 299 295 297
306 315 321 324 327 328 329 330 330 331 330 330 330 329 328 328 328 329 330 331 331 332 333 333 333 332 332 331 331 330 330 329 329 328 328 327 327 326 324 322 321 320 318 316 314 313 313 313 312 310 310 310 310 310 309 308 307 307 305 304 304 304 304 302 302 302 302 301 301 301 301 301 301 302 301 300 299 299 299 301 302 302 302 298 294
304 311 320 324 326 328 329 330 330 331 331 330 330 330 330 329 329 329 330 330 331 332 332 333 332 332 331 331 330 330 330 330 329 328 328 326 325 325 322 320 319 318 317 315 313 312 312 315 310 309 309 309 309 308 308 307 306 305 304 304 303 303 303 302 303 302 301 301 302 301 302 301 301 300 300 300 299 299 298 299 299 299 302 300 296
304 308 315 322 325 327 328 329 330 331 332 332 332 331 330 329 329 330 330 331 332 333 333 333 333 332 332 331 330 330 330 330 329 329 327 326 324 323 321 320 319 317 316 314 311 310 311 310 309 308 308 308 308 307 307 306 305 304 304 302 302 302 302 301 301 301 301 301 300 299 299 299 300 300 300 300 300 299 298 297 297 299 300 301 298
302 308 313 319 324 327 328 329 329 330 331 331 331 331 330 330 329 329 331 331 332 332 333 332 333 333 332 331 330 330 330 330 329 328 326 326 325 323 321 319 318 317 316 313 311 310 310 308 308 308 307 307 307 306 306 305 304 304 303 302 302 302 301 301 301 302 301 300 300 299 299 299 299 300 300 300 300 300 300 298 298 297 296 297 298
300 305 312 317 321 325 328 329 330 331 331 331 331 330 330 330 329 329 329 330 331 332 332 332 333 332 331 330 330 330 329 330 328 327 327 326 325 323 321 320 318 316 314 312 310 310 309 308 307 308 307 306 306 305 305 304 304 302 302 302 301 301 301 300 302 300 300 300 300 299 299 299 300 300 299 299 299 299 298 298 298 298 297 296 296
297 302 308 315 319 323 327 329 330 330 329 329 331 331 330 329 330 330 330 330 331 331 332 332 332 332 331 330 330 330 329 329 328 326 326 325 324 323 322 320 317 316 314 312 310 309 308 308 307 307 306 306 306 305 304 304 303 302 301 302 301 301 300 300 300 300 300 300 300 299 298 299 299 299 299 298 298 297 297 297 296 296 296 296 296
298 299 304 312 318 321 325 327 328 328 329 330 330 330 330 330 330 330 330 330 331 332 333 333 332 332 331 330 330 329 329 328 327 326 325 325 324 323 322 320 318 316 314 312 310 309 308 307 307 306 306 306 306 305 304 304 303 302 301 301 301 301 301 300 300 300 299 299 300 300 298 299 300 299 298 298 298 297 297 296 295 296 295 295 295
299 299 301 308 315 320 323 324 326 327 328 329 330 330 331 330 330 330 330 330 331 332 332 332 332 331 331 330 330 330 329 328 327 326 325 324 324 323 322 320 319 316 313 312 311 309 308 307 307 306 306 305 305 304 304 304 303 302 301 301 301 301 301 301 300 300 299 299 299 298 298 299 300 298 297 296 296 296 296 296 295 295 295 295 295
302 300 300 304 311 316 320 323 325 327 328 329 330 330 330 330 330 330 330 331 331 332 332 332 331 331 331 330 329 329 328 327 327 326 325 324 323 323 322 320 318 316 314 312 311 309 308 308 307 306 305 305 304 304 303 303 302 302 302 301 301 300 301 300 300 300 302 299 300 299 298 298 298 297 296 295 295 295 295 295 295 295 295 295 296
304 302 300 301 307 314 318 322 325 327 328 329 330 330 330 331 331 331 331 331 331 332 332 331 331 330 330 330 329 329 328 327 327 326 325 324 323 322 321 321 318 316 314 312 311 309 309 308 307 306 305 305 304 303 303 303 302 302 302 301 301 301 300 300 300 300 300 300 300 299 298 297 297 296 295 294 294 294 294 294 294 294 294 294 294
306 303 303 302 305 311 317 322 325 327 328 329 329 330 330 330 330 331 332 331 332 332 332 331 331 331 330 330 330 329 328 327 326 326 326 324 323 322 321 320 319 316 313 312 311 310 310 309 307 306 305 305 304 303 303 302 302 302 301 301 300 300 300 300 300 300 300 300 299 299 298 297 297 296 295 294 294 294 294 294 295 294 293 294 294
306 302 303 305 306 311 316 321 324 326 328 329 330 330 330 330 330 331 332 332 332 332 332 332 331 331 331 330 330 330 329 328 327 326 325 324 323 322 321 320 319 316 314 312 311 310 309 308 307 306 305 305 303 303 303 302 302 301 301 301 300 300 300 300 300 300 300 300 299 298 297 297 297 296 296 294 294 294 294 294 293 293 293 294 294
311 307 304 306 308 312 317 321 324 325 327 328 329 330 330 331 331 332 332 332 333 333 332 332 331 331 331 331 330 330 329 328 327 326 325 324 323 322 321 319 318 316 314 313 311 310 308 307 306 306 304 304 303 303 302 302 301 301 301 300 300 300 300 300 299 299 299 299 299 298 297 296 299 300 299 298 296 296 294 294 293 294 294 294 293
311 312 307 306 310 313 318 321 323 325 326 327 329 329 330 330 331 332 332 333 333 333 332 332 331 331 332 331 330 329 328 328 327 326 325 324 323 321 320 318 317 316 314 312 311 310 308 307 305 304 304 303 303 303 304 303 303 301 300 301 300 300 300 300 300 299 298 298 298 297 299 302 304 303 301 298 297 298 298 296 294 294 295 293 293
311 313 312 309 311 314 318 321 323 325 326 327 328 330 330 331 331 332 332 333 334 333 332 332 331 332 332 331 330 329 328 327 327 326 325 324 322 321 319 318 316 315 313 312 310 309 307 306 305 304 303 303 303 303 301 297 297 300 301 301 300 300 300 300 300 299 298 298 297 297 298 304 306 305 301 297 296 296 296 296 296 297 297 296 293
312 313 313 311 312 314 317 320 322 324 326 327 328 329 330 331 332 332 333 334 333 333 332 332 332 332 332 331 330 328 327 327 326 325 324 323 322 320 318 317 315 314 313 312 310 309 307 306 305 304 304 303 303 303 297 297 296 297 301 301 300 300 300 301 300 300 299 299 297 296 298 303 302 301 299 298 298 296 295 295 294 295 295 296 296
311 313 314 314 313 315 318 319 322 324 326 327 329 329 330 331 331 332 333 333 333 333 333 332 332 332 331 331 329 328 327 326 326 325 324 323 321 319 318 316 315 314 312 311 310 309 307 306 305 304 304 304 303 299 296 296 296 296 297 300 300 301 301 301 300 300 299 298 297 297 298 300 300 303 301 296 298 298 297 296 295 296 295 294 292
311 313 315 315 313 315 318 320 322 324 326 327 329 330 331 332 332 332 331 332 332 332 332 332 332 331 331 330 329 328 327 326 326 325 324 322 320 319 318 317 316 314 312 311 310 308 307 306 305 305 304 304 303 299 296 296 296 295 295 298 301 301 301 301 300 299 298 298 297 298 299 299 297 302 297 295 295 295 297 297 297 297 296 299 296
310 313 314 314 314 314 316 318 321 323 324 326 328 330 330 331 331 330 331 331 332 332 332 332 331 331 331 330 328 327 326 326 325 324 323 322 320 319 317 316 315 313 312 310 309 308 307 306 305 305 304 303 304 297 295 295 295 295 295 298 301 301 301 301 300 299 299 298 297 299 300 299 297 299 297 295 295 295 295 294 294 295 296 296 297
311 314 313 314 315 316 318 320 322 324 325 328 328 330 330 329 330 330 330 331 331 331 331 331 330 330 330 329 328 327 326 325 324 323 322 321 320 318 317 316 315 313 312 311 310 309 307 306 305 305 304 303 303 295 295 295 295 294 295 302 301 301 300 300 299 298 298 298 298 299 299 297 296 299 299 294 296 295 293 293 294 294 294 295 296
309 314 316 316 316 317 319 320 322 325 326 327 328 329 330 329 329 329 329 330 330 330 330 329 329 330 329 329 328 326 325 324 324 322 321 321 320 318 317 316 314 313 311 310 309 309 308 307 305 305 304 303 302 296 294 294 294 294 297 301 300 300 300 299 299 299 298 298 298 299 298 296 295 297 297 292 293 294 293 294 295 294 294 295 297
305 306 309 313 316 317 318 322 323 324 326 327 328 329 329 328 328 328 328 328 328 328 329 329 329 329 329 328 328 326 324 323 323 322 321 321 320 319 317 315 314 313 311 311 310 308 306 306 305 305 305 303 302 298 294 294 294 294 299 301 301 300 299 300 299 299 299 299 299 302 300 296 295 296 295 292 292 294 293 293 293 293 293 293 296
306 305 305 308 315 320 320 320 323 323 324 326 327 328 328 327 326 327 327 327 327 328 329 329 329 330 329 328 327 326 324 323 322 322 322 321 319 318 317 316 315 313 311 310 308 307 306 306 305 305 307 305 302 299 294 294 294 294 300 301 300 300 299 299 299 299 300 300 299 302 302 298 297 296 293 293 291 294 293 294 294 293 292 292 294
300 301 304 305 313 317 318 319 321 322 324 325 326 327 325 326 326 327 327 327 327 328 330 330 330 329 329 328 327 325 324 323 322 322 321 320 318 317 316 314 312 311 309 308 307 306 305 304 304 304 305 305 302 300 297 294 294 295 298 302 301 300 299 299 299 299 299 299 299 300 301 294 294 293 292 292 291 292 294 294 293 292 291 290 291
303 305 303 304 314 319 320 321 322 323 324 325 326 326 324 324 325 326 326 328 329 329 329 329 329 329 328 327 326 325 323 323 323 322 321 318 317 316 314 313 311 310 308 307 305 304 304 303 303 304 304 304 303 301 297 293 294 295 296 299 301 301 300 300 299 299 299 299 298 299 300 297 293 292 292 292 291 291 293 294 293 293 293 293 291
306 306 303 305 312 316 317 319 321 323 325 325 326 324 324 324 324 325 326 328 328 329 329 328 328 328 327 326 325 325 324 323 323 322 319 317 315 315 314 313 310 309 307 306 305 304 303 302 302 303 304 304 304 302 299 294 294 295 295 297 301 301 301 301 300 300 300 299 299 299 299 298 293 292 292 292 291 291 291 296 294 291 290 289 293
308 306 305 307 312 316 318 319 321 323 325 326 325 323 322 322 323 324 326 326 326 327 327 327 327 326 325 325 324 323 322 324 322 319 317 312 311 313 313 311 309 307 306 305 305 304 303 301 301 302 303 303 303 302 298 297 294 294 295 296 297 299 296 302 301 300 300 300 300 300 300 298 293 292 292 292 291 290 291 294 291 289 289 289 293
310 311 308 307 310 314 317 317 320 322 324 325 325 323 321 321 323 326 325 326 326 326 326 325 324 325 324 323 323 322 323 323 320 316 313 309 310 311 311 310 309 307 305 304 304 303 302 301 301 301 301 301 302 302 297 296 296 293 294 295 295 295 296 301 302 301 301 300 299 299 298 295 293 292 292 291 291 291 292 291 290 289 289 290 294
311 313 313 308 309 309 311 314 318 320 322 324 325 323 319 320 323 324 323 324 324 324 324 324 323 323 322 323 322 322 322 321 319 315 311 309 308 309 309 308 308 307 306 304 303 303 302 302 301 300 300 300 301 301 299 296 294 293 293 294 294 294 294 296 301 301 300 299 296 294 294 293 292 292 291 291 290 290 290 290 289 289 292 292 292
311 312 312 312 312 311 310 310 314 319 322 322 324 324 320 321 323 324 325 325 325 324 323 322 319 319 321 321 320 320 320 319 317 316 312 310 309 308 308 307 307 307 306 305 302 302 302 302 301 300 300 300 300 300 299 298 296 296 295 293 293 293 295 295 298 299 295 294 293 292 293 292 292 292 293 292 292 292 290 289 289 291 293 291 291
311 310 309 313 313 313 312 312 312 315 319 321 323 324 323 321 323 324 325 325 325 323 320 318 318 320 320 320 319 319 318 316 315 313 311 309 309 309 308 307 308 306 305 304 302 302 302 301 301 300 301 300 300 300 299 298 297 297 297 296 295 295 295 294 298 297 295 296 294 294 294 292 293 291 292 292 292 291 291 292 292 293 292 291 291
312 311 312 313 313 314 314 314 314 315 317 319 321 322 321 321 322 323 325 324 320 319 318 318 318 318 316 317 317 306 311 314 313 311 308 308 308 308 307 306 307 306 304 302 302 301 301 300 301 301 300 300 299 299 299 298 297 297 297 296 297 297 296 297 297 295 295 295 295 292 292 294 294 293 292 292 292 292 291 290 291 291 291 291 291
313 312 310 313 313 312 312 313 313 315 316 316 317 317 319 320 321 322 322 320 318 314 317 317 316 315 315 313 316 314 314 313 311 310 309 309 308 307 307 307 307 306 306 304 303 303 302 303 303 301 300 299 299 299 300 296 298 294 295 296 296 297 296 296 296 292 294 292 291 291 291 291 292 291 289 292 291 291 291 291 291 290 290 290 291
313 314 314 313 312 313 314 314 315 317 317 317 316 317 318 320 321 321 321 319 315 316 317 315 314 315 315 313 313 313 313 311 310 308 306 305 297 300 304 307 304 301 299 299 300 304 305 305 304 304 303 302 301 302 296 294 294 293 293 294 294 294 293 295 292 290 292 291 290 290 290 290 290 291 291 291 291 291 291 290 290 289 290 290 290
312 313 313 313 313 313 314 314 315 316 317 317 317 318 319 320 321 321 321 318 316 315 315 314 312 313 310 312 312 312 311 310 309 307 306 304 302 299 295 296 298 298 297 296 297 297 298 299 303 303 302 297 294 293 294 294 293 293 292 292 292 292 291 291 290 291 291 290 289 289 288 289 289 291 290 291 290 290 289 288 290 290 290 290 289
Wind_Speed
16 14 13 12 10 10 11 11 10 10 8 9 10 11 12 12 11 12 10 10 9 9 9 9 10 8 6 9 8 7 6 6 6 6 6 6 7 7 7 6 7 6 6 6 6 6 5 5 5 4 5 5 5 5 5 6 5 6 6 4 8 8 4 4 5 8 10 5 6 6 6 5 4 4 4 3 3 3 3 4 3 4 3 4 3
13 8 4 6 9 10 10 10 11 14 13 12 13 12 11 12 13 12 10 11 11 10 8 8 8 8 7 7 6 6 7 7 6 5 6 6 7 7 7 7 8 8 6 6 6 6 6 5 6 6 6 5 4 4 5 5 6 6 6 5 1 6 6 6 7 7 3 6 7 3 3 4 3 4 4 3 2 2 3 4 4 5 5 4 2
13 13 8 9 12 11 11 11 12 16 13 12 10 10 12 13 13 12 12 12 11 10 9 9 7 5 5 4 7 4 3 5 6 6 6 7 6 6 6 7 8 7 8 7 6 6 6 6 6 6 5 5 5 5 6 7 6 8 8 8 5 2 3 5 6 1 6 4 4 6 3 3 1 2 2 3 2 2 3 4 4 5 5 4 3
15 14 13 12 13 14 12 11 12 11 13 12 13 15 13 13 13 13 13 12 11 11 10 7 6 4 3 5 5 6 5 4 4 5 5 6 6 6 5 6 7 7 9 8 6 6 7 7 6 6 6 5 6 7 6 7 6 6 6 6 8 6 4 7 4 2 5 10 4 1 4 4 3 5 3 1 1 2 4 4 4 5 4 3 3
17 16 14 11 11 13 15 16 13 13 14 16 15 15 13 16 14 14 12 13 12 12 11 8 7 5 4 4 4 4 4 5 5 5 6 7 6 6 6 6 7 7 7 7 7 7 6 6 6 6 6 6 5 6 7 7 7 7 7 7 8 8 7 5 5 2 5 1 7 5 2 2 4 2 4 1 1 3 2 2 3 3 4 5 4
21 19 16 15 16 16 15 12 11 13 14 16 16 16 12 11 13 12 11 11 12 12 11 10 10 10 8 8 9 8 8 9 11 11 9 8 7 6 6 6 6 6 6 7 6 6 6 6 6 7 6 6 6 6 6 5 6 7 7 8 8 5 9 6 6 3 3 2 1 1 4 2 5 2 3 3 1 0 1 1 1 2 2 4 3
11 10 10 11 12 12 13 13 15 16 17 15 13 13 14 12 13 13 12 11 11 11 12 10 10 10 12 12 10 11 10 6 4 7 8 7 7 8 6 6 6 7 6 6 6 6 6 6 6 6 6 6 5 5 6 7 7 7 6 6 7 6 5 7 8 7 2 1 1 3 2 1 7 7 4 3 2 2 2 2 2 2 2 3 4
13 13 11 12 13 14 16 16 15 18 18 14 14 13 16 16 15 15 12 11 11 11 13 12 12 11 11 12 11 11 10 8 7 7 6 7 8 8 6 6 6 6 7 6 7 7 6 6 6 6 6 6 6 6 7 6 5 4 6 7 5 6 7 8 8 6 8 4 2 2 4 4 3 2 6 6 5 5 4 1 3 2 1 2 2
13 12 12 13 15 15 14 14 16 17 14 14 15 16 16 14 14 13 13 12 12 14 13 14 13 13 12 11 10 8 7 7 7 7 8 7 8 6 7 7 6 6 7 8 7 7 6 7 6 6 6 6 5 5 5 6 7 7 6 6 7 6 6 5 6 7 6 6 5 2 4 3 3 3 3 3 4 4 1 4 4 1 1 2 0
9 12 13 15 16 16 18 19 18 17 12 12 12 9 10 11 13 15 15 13 12 14 14 15 14 12 12 13 13 8 6 7 8 8 8 8 8 8 7 7 6 6 5 6 7 7 7 6 7 7 6 6 5 5 5 5 5 5 6 7 7 7 5 6 7 6 7 6 6 7 5 3 3 3 2 3 4 2 5 6 6 7 6 3 3
10 12 12 14 15 17 16 16 17 13 10 11 11 11 11 12 14 16 16 12 13 15 15 16 14 13 13 13 13 11 10 10 9 8 8 8 8 8 8 7 6 7 6 6 6 7 6 6 6 6 5 5 5 5 6 6 6 5 5 4 6 7 6 6 4 5 6 6 6 7 7 8 7 6 6 5 5 3 3 1 2 4 5 4 4
11 12 13 13 12 11 9 11 10 7 7 9 10 11 12 14 14 16 14 16 14 14 15 15 14 14 13 12 13 11 12 11 12 12 11 11 10 9 7 6 6 6 6 6 6 6 6 6 5 5 5 5 5 5 5 5 4 4 4 5 5 4 5 5 6 6 7 5 6 6 6 6 5 6 6 7 7 6 6 4 5 3 3 3 1
11 12 12 12 13 14 13 14 12 10 12 14 15 15 15 14 16 18 18 17 16 15 16 16 15 15 14 13 12 10 12 12 12 12 11 11 10 9 8 8 7 7 7 7 6 7 6 6 6 6 5 5 5 5 5 5 5 5 5 5 5 6 6 7 7 7 8 8 7 4 4 5 6 3 5 6 4 4 6 5 1 0 4 3 1
11 12 13 14 15 14 16 16 15 14 15 17 16 15 14 15 17 18 19 17 15 15 17 17 17 15 13 12 11 10 11 11 11 11 11 10 10 10 10 10 10 10 9 9 7 7 6 6 7 6 5 6 6 6 5 5 5 5 5 6 6 4 5 6 6 6 5 4 5 5 4 5 4 4 5 6 6 6 5 7 5 3 2 4 1
9 12 14 15 15 16 16 16 15 15 16 16 15 15 14 15 16 18 16 16 17 18 16 17 15 14 12 12 11 10 11 10 10 9 11 11 9 10 9 8 9 8 9 7 7 7 6 6 6 6 6 6 6 6 5 5 4 4 4 5 4 4 5 5 5 7 6 6 5 5 5 3 4 4 4 5 6 7 7 7 8 7 4 3 3
10 11 12 14 15 16 15 14 14 15 17 16 16 15 15 16 18 20 20 19 17 16 16 16 14 12 12 12 12 11 10 9 9 9 10 10 11 10 10 9 8 7 7 8 7 8 8 7 6 6 6 6 6 6 6 5 5 5 4 4 5 2 6 6 5 5 6 6 6 5 6 4 3 3 3 3 3 3 5 6 7 8 9 3 1
11 12 12 14 14 15 15 15 14 15 15 16 17 17 19 19 18 18 17 15 17 18 17 15 14 13 14 13 11 12 12 13 12 11 11 9 9 9 9 8 7 7 7 7 8 7 7 8 7 7 6 6 6 6 5 5 5 5 5 5 6 4 5 6 5 6 5 6 5 6 6 5 4 4 4 3 3 3 3 5 5 8 8 8 6
13 14 15 16 16 17 17 16 17 17 18 18 19 18 18 18 18 19 18 19 18 18 17 16 16 15 13 13 13 13 12 11 11 11 10 9 8 7 7 8 9 8 8 7 8 8 7 7 8 7 7 7 7 6 6 6 6 5 5 4 5 6 6 4 4 6 6 5 6 6 5 6 4 5 5 4 4 4 4 4 4 3 6 9 6
9 12 13 13 14 14 15 16 17 18 18 19 19 18 15 14 15 17 20 21 19 15 13 12 13 12 12 14 14 12 11 11 10 11 10 11 11 9 10 9 8 8 8 8 8 8 8 7 7 8 7 7 6 6 6 6 6 6 5 5 5 6 6 6 4 5 5 6 7 7 5 6 4 5 5 5 4 5 5 4 3 4 4 6 8
10 10 12 14 15 16 17 17 16 17 16 16 15 13 14 15 15 15 14 12 12 15 16 16 15 13 12 11 12 12 12 12 11 12 11 12 11 11 10 10 10 9 9 10 9 9 8 8 7 7 7 7 7 6 6 6 5 5 6 6 5 6 7 7 6 4 5 6 7 7 6 6 4 5 5 5 5 5 4 5 4 4 3 4 7
10 11 13 14 15 15 16 16 16 17 17 15 14 16 17 14 14 14 17 18 18 17 15 14 13 13 13 15 14 13 13 11 12 12 12 11 11 10 10 10 9 9 9 10 9 9 9 9 9 8 8 8 7 7 6 6 6 6 5 6 6 6 7 6 6 6 4 6 7 7 6 5 4 7 5 5 5 5 6 5 4 5 5 3 6
9 10 11 13 14 15 15 15 15 13 10 11 13 14 13 14 16 16 16 15 17 16 16 16 14 14 15 14 13 12 12 11 13 12 12 11 11 11 10 9 11 10 10 11 10 9 8 9 9 8 8 8 7 8 7 6 7 7 6 5 6 7 7 7 6 7 5 5 6 8 6 5 4 7 6 6 5 5 5 6 5 4 5 4 2
10 10 11 13 13 15 15 17 17 16 15 16 15 15 16 17 17 15 17 18 18 18 16 14 13 13 14 13 13 12 13 14 14 12 12 12 11 11 10 11 11 10 9 10 10 10 10 9 9 9 8 8 8 8 7 7 7 8 8 6 6 7 8 8 7 7 7 6 7 7 6 5 5 7 5 5 5 6 5 6 4 4 5 4 4
9 10 11 12 13 13 14 15 13 11 12 14 15 15 16 15 15 15 18 18 16 14 14 14 14 14 14 13 14 13 15 14 15 13 14 12 11 11 10 11 10 10 11 8 9 10 10 10 9 8 8 9 8 8 7 7 9 9 8 8 7 7 7 7 8 8 7 7 8 7 6 6 6 8 6 5 4 5 6 5 5 4 5 5 5
8 9 12 13 13 14 16 13 12 14 14 15 16 16 16 16 16 17 17 17 15 14 14 15 15 15 14 14 15 14 15 16 15 13 14 13 12 11 10 11 10 10 10 10 8 9 10 10 9 9 10 10 10 9 9 8 7 7 9 8 8 7 7 7 7 8 7 7 7 7 7 6 7 8 5 6 5 7 5 6 5 4 5 4 5
10 10 8 12 15 15 12 11 13 15 15 15 16 16 16 16 18 17 16 14 15 14 15 15 14 15 15 16 16 15 16 17 15 14 14 14 12 11 11 10 12 12 11 10 11 10 10 11 10 10 10 9 9 9 9 9 9 8 7 7 7 7 7 7 7 7 7 7 7 8 7 7 7 8 6 5 5 7 6 6 6 4 4 5 6
10 9 10 7 7 11 14 14 14 15 16 15 15 16 16 16 17 15 14 15 15 15 15 15 15 16 15 16 16 16 15 15 14 13 13 13 13 13 13 12 11 12 12 11 10 11 9 10 10 10 9 9 9 9 8 8 8 8 8 8 7 7 7 6 6 7 7 7 7 7 7 6 7 7 8 7 7 6 6 7 6 6 4 6 5
8 6 7 10 11 10 11 12 13 14 15 15 15 15 15 17 17 16 15 14 13 15 16 16 16 15 15 16 16 15 14 14 13 12 13 14 14 14 13 12 11 12 12 12 12 12 10 9 9 9 9 9 9 8 8 8 8 8 8 8 8 8 7 6 6 6 6 6 7 7 7 7 7 7 8 7 7 7 6 7 5 5 5 6 5
10 5 7 8 9 10 11 12 13 13 14 14 14 14 13 12 11 13 13 15 15 15 15 16 16 16 16 15 14 13 12 13 13 13 13 13 13 14 13 12 12 11 10 11 11 11 11 9 8 8 9 8 9 8 8 8 8 8 7 8 8 8 8 8 7 6 6 6 6 6 6 6 6 7 9 8 7 7 8 7 5 5 6 6 5
10 9 4 8 9 8 9 11 12 15 16 15 15 15 16 16 16 16 16 16 15 16 16 16 16 16 14 14 14 13 13 13 14 14 13 13 12 12 12 13 12 11 11 10 10 10 11 12 11 9 8 8 7 6 9 13 11 9 8 7 7 8 8 8 8 7 6 5 7 7 6 9 9 10 10 9 9 8 7 8 9 7 7 6 5
9 10 6 5 7 7 9 11 13 14 15 16 15 16 15 15 14 15 16 15 16 16 16 16 17 15 13 13 13 13 14 15 14 13 12 13 12 12 12 12 12 11 12 11 11 11 10 10 11 11 10 8 7 7 14 14 14 14 10 8 8 8 8 8 8 8 8 7 5 5 6 7 8 8 8 10 9 9 8 8 10 8 6 8 7
8 9 7 3 5 6 9 10 11 12 13 12 12 12 13 15 15 15 15 14 15 15 16 16 15 14 14 14 13 14 14 15 14 14 14 13 12 12 12 12 12 12 11 11 12 12 11 10 9 10 10 9 8 10 16 15 15 15 12 9 8 8 8 8 8 8 8 7 7 6 5 4 6 7 7 7 7 8 8 8 8 8 8 7 6
8 10 9 5 4 7 8 9 9 11 13 13 12 11 13 14 15 14 12 13 14 15 15 14 14 14 14 14 13 14 15 14 14 14 13 12 12 12 12 13 14 12 11 11 12 11 11 11 11 12 10 9 8 13 16 16 15 16 15 11 8 8 8 8 8 8 8 8 7 6 6 4 5 10 7 7 7 6 5 5 5 5 5 6 7
7 7 9 7 1 6 7 9 9 9 9 9 11 12 11 10 10 9 11 12 13 12 13 13 13 14 14 13 14 14 15 15 14 13 12 13 13 13 13 11 12 13 13 12 12 13 12 13 12 12 12 11 10 13 17 17 16 16 15 12 8 9 8 9 9 8 7 8 8 8 7 6 4 5 6 7 6 6 5 4 3 4 4 5 5
5 6 6 5 3 3 5 7 8 9 9 9 9 10 9 10 11 13 13 14 13 13 12 12 13 13 13 13 14 14 15 14 14 14 14 13 13 12 13 11 10 12 13 13 14 13 12 13 13 12 10 10 9 16 18 18 17 17 16 12 8 8 8 8 7 8 8 9 9 8 8 8 8 7 7 8 7 7 7 5 5 5 5 4 4
7 7 6 5 4 5 8 9 8 9 10 11 11 10 10 11 11 12 12 12 13 13 12 11 11 12 13 13 14 14 14 14 13 13 14 15 14 14 14 11 9 9 9 10 11 11 13 14 13 12 11 10 9 17 18 18 18 17 17 9 9 9 8 8 8 7 7 8 8 8 8 8 8 9 9 12 9 7 7 7 6 5 4 3 4
7 6 6 5 4 3 4 5 6 9 10 10 10 11 11 11 12 12 13 13 12 12 12 12 12 11 12 13 14 14 13 14 15 13 13 14 13 12 11 10 12 11 12 12 12 12 11 13 14 13 13 10 9 16 19 19 18 19 14 8 8 8 8 8 8 8 8 8 7 7 8 7 8 8 9 12 10 9 7 7 7 6 4 4 5
4 4 3 3 4 3 3 6 9 10 11 9 10 11 11 11 11 11 12 11 12 12 12 12 12 12 12 12 13 14 14 12 13 15 15 13 12 11 12 11 12 12 12 12 11 7 4 6 10 12 13 12 10 14 19 18 19 19 14 10 8 9 8 8 8 7 7 7 8 13 9 8 8 8 11 13 13 10 7 7 6 6 5 5 6
6 5 5 5 5 7 8 5 6 9 8 10 12 13 12 11 10 11 11 11 12 13 13 13 13 12 12 12 12 13 14 13 12 13 14 14 13 12 11 12 12 10 10 9 9 10 9 9 10 10 9 11 10 12 17 18 19 19 14 11 10 8 9 8 8 7 6 6 6 9 12 9 9 9 14 13 13 11 7 7 7 6 6 6 7
5 4 6 6 4 4 7 8 9 10 9 10 11 12 12 11 11 11 12 12 13 13 14 12 11 11 11 11 11 12 13 15 15 14 10 10 9 10 11 10 8 9 11 10 9 9 9 8 8 9 11 11 11 11 15 19 19 19 18 12 9 9 9 9 8 7 6 6 6 6 8 11 12 12 13 14 14 13 9 7 6 6 6 7 5
4 5 4 3 5 8 10 12 11 10 9 10 10 11 11 12 12 12 14 15 13 9 8 9 11 12 12 13 12 13 14 14 14 14 13 11 10 12 11 10 10 9 9 8 9 8 8 8 9 9 9 9 10 12 14 19 20 20 19 15 9 10 9 9 8 8 8 8 7 6 5 10 12 10 11 13 14 14 11 7 7 6 8 5 6
3 6 4 4 5 6 6 6 6 10 11 11 11 13 13 13 12 14 14 9 8 9 9 9 11 12 13 13 13 13 15 14 12 11 11 10 9 11 13 13 10 10 12 12 12 11 11 9 6 7 8 9 8 13 13 17 19 20 19 17 11 10 10 9 8 8 7 7 8 8 7 10 14 13 12 13 14 14 13 7 9 10 6 7 7
2 2 4 4 5 7 10 11 9 10 11 12 13 13 11 10 14 15 10 11 11 9 9 9 10 12 13 13 13 15 13 11 11 11 11 10 10 11 12 12 12 11 12 13 12 11 10 8 7 6 5 7 7 9 15 15 17 19 19 17 16 12 13 10 9 9 9 9 8 8 7 11 14 15 14 14 14 15 11 9 11 8 8 9 6
4 1 2 5 5 7 7 6 7 8 9 10 13 13 12 13 15 9 11 13 14 14 13 11 11 12 13 13 14 15 15 12 12 10 11 12 12 13 13 12 12 12 11 11 10 10 10 11 10 8 6 6 7 8 10 16 15 18 17 17 15 14 14 10 9 9 8 8 8 8 8 12 13 15 15 15 15 13 10 14 11 10 10 8 5
9 8 9 7 7 7 5 5 8 10 10 11 11 13 12 16 11 11 12 10 9 9 10 10 11 10 11 12 13 13 13 12 12 12 12 12 11 10 11 10 12 11 11 12 11 11 12 11 10 10 9 8 8 7 7 11 16 17 18 17 16 14 15 14 9 6 7 8 10 13 12 12 13 14 16 15 11 12 15 12 10 10 9 5 5
5 1 0 1 0 1 2 3 4 9 11 11 11 11 15 16 9 12 14 14 13 13 12 11 9 10 12 12 13 12 13 11 11 11 13 14 15 13 11 10 10 10 11 11 10 10 10 9 9 8 8 9 8 7 8 8 10 13 14 17 16 14 14 14 13 9 11 12 13 13 14 13 12 11 8 6 7 9 11 10 10 9 6 6 6
11 3 6 4 3 2 1 1 2 4 7 7 9 10 10 5 10 7 8 9 10 11 11 12 16 17 16 15 14 11 10 10 10 9 10 12 13 13 13 14 13 11 10 9 9 9 9 9 10 9 9 9 8 8 7 7 8 9 9 9 9 8 10 10 7 5 6 7 9 9 8 9 7 11 11 9 7 6 6 5 5 5 6 6 6
4 8 2 8 3 1 1 1 1 2 3 6 8 9 7 7 6 7 8 10 11 13 14 14 15 12 10 12 14 18 16 12 12 12 11 11 11 13 14 13 12 11 10 9 9 9 9 10 10 8 8 8 8 8 8 10 10 10 9 9 9 8 8 8 7 6 6 6 6 4 5 4 4 4 2 2 3 4 5 6 5 5 5 4 4
5 6 8 3 4 5 3 3 2 1 1 2 3 3 4 7 7 8 10 11 11 12 12 11 11 11 12 12 13 13 12 11 10 10 11 14 16 13 12 10 7 12 16 17 15 13 13 11 10 11 10 9 8 10 13 11 12 13 12 11 10 9 8 7 9 10 7 5 6 6 6 5 6 6 3 4 4 4 5 5 6 5 4 4 4
3 3 3 5 5 4 6 5 4 2 2 2 1 2 3 5 7 8 11 12 11 11 11 12 11 11 11 10 9 10 9 9 8 8 8 5 8 8 9 13 11 12 15 14 15 14 13 12 11 10 11 14 16 14 12 15 15 16 16 17 15 14 13 11 11 15 10 6 6 7 7 6 7 6 7 6 7 6 6 5 5 5 5 5 5
2 4 4 5 4 4 6 5 5 4 4 3 2 3 4 5 7 9 11 11 12 11 10 9 9 9 11 12 11 10 8 8 8 8 7 9 7 7 9 11 11 14 14 13 12 12 14 13 12 10 6 5 11 14 17 16 16 17 17 16 15 15 15 14 15 11 4 6 6 6 6 6 7 7 7 8 7 6 5 5 6 6 6 7 5
Wind_Direction
222 212 200 196 190 182 176 172 170 173 185 187 187 188 185 184 184 192 190 190 192 194 194 187 189 188 191 190 189 175 174 174 176 180 180 182 172 170 168 165 161 160 163 159 161 158 155 153 153 155 160 163 166 177 164 154 144 140 129 119 126 116 99 126 129 122 116 70 57 60 50 35 60 78 86 90 107 118 117 134 139 133 142 143 147
226 227 178 154 176 182 179 176 167 173 192 187 193 192 186 186 190 188 187 192 198 200 198 201 200 200 190 188 169 159 164 172 180 179 180 171 168 167 164 160 164 167 161 163 160 156 155 159 162 165 167 173 167 147 147 136 130 136 134 99 56 133 145 171 170 121 76 142 137 112 57 40 64 68 68 43 64 106 143 146 161 158 163 163 156
219 221 183 180 183 182 182 181 185 187 177 184 189 190 195 192 193 189 188 189 195 196 197 202 198 194 184 163 169 139 158 173 169 173 166 165 166 163 157 159 161 162 162 163 163 163 165 163 167 160 166 160 138 146 149 144 154 157 160 145 129 56 109 181 184 51 134 113 102 103 153 110 318 39 66 52 47 121 149 167 173 174 175 172 165
216 213 194 185 181 182 184 186 189 181 178 185 188 193 194 198 195 191 189 189 193 196 198 197 190 177 161 149 158 156 164 153 145 145 150 143 157 157 156 158 161 162 165 165 165 162 167 173 158 157 162 166 159 152 159 157 161 167 163 158 145 140 159 196 207 151 137 139 153 156 175 134 150 232 186 185 277 121 160 170 168 174 165 158 142
210 211 205 182 177 185 190 194 183 182 187 189 192 193 197 197 194 191 187 190 193 193 190 178 171 167 150 124 130 102 90 142 143 154 164 163 152 158 162 158 163 162 164 166 164 165 170 168 163 163 159 165 161 156 164 171 175 175 170 160 173 160 177 185 202 143 202 10 139 118 90 171 218 183 124 201 356 132 125 164 165 140 163 174 182
200 204 199 188 188 193 197 189 180 191 195 198 195 194 189 192 193 191 190 190 192 191 185 177 184 181 171 167 175 180 178 177 187 177 166 165 162 151 152 164 161 161 164 161 161 158 170 171 165 159 162 161 169 169 163 149 169 176 186 177 185 192 166 166 190 216 218 103 73 139 165 173 162 202 118 215 3 309 300 250 149 111 129 156 193
235 222 197 189 195 194 197 189 190 195 204 197 190 189 189 188 189 189 191 191 190 188 182 181 186 192 192 192 189 190 191 194 154 156 163 160 150 162 161 158 164 161 162 160 159 166 164 167 165 166 164 165 161 153 164 179 179 186 184 188 192 171 148 172 186 189 94 262 94 44 63 16 139 134 192 85 179 292 326 230 186 66 96 128 180
206 204 190 190 193 196 197 197 196 202 201 190 189 188 189 191 187 189 188 188 187 184 186 186 188 191 195 199 195 194 195 173 159 149 150 151 154 160 155 163 165 165 157 161 163 165 164 165 162 159 160 165 158 169 179 185 169 173 186 194 179 181 175 174 185 174 179 185 126 101 70 81 50 61 148 166 154 166 224 320 304 320 152 141 207
201 201 198 193 196 200 205 206 209 209 199 187 190 193 191 186 185 185 189 185 187 186 186 190 192 191 194 195 200 200 176 152 144 147 152 157 153 151 159 166 165 163 165 164 166 166 168 164 161 158 159 166 167 164 171 175 183 174 170 175 184 189 188 179 161 184 186 170 138 85 95 76 59 53 98 83 137 132 229 185 179 353 9 260 39
207 206 200 198 201 203 203 204 204 207 195 196 201 188 179 179 185 187 191 187 184 188 189 191 193 191 195 198 196 182 154 144 150 156 159 159 157 160 166 165 161 160 163 166 163 169 165 160 163 165 167 162 153 167 162 177 191 188 187 187 183 184 189 171 178 178 192 175 180 155 141 116 81 78 43 91 44 73 165 194 189 169 183 241 40
203 204 204 205 205 205 204 206 211 204 188 186 186 188 185 183 187 190 192 184 185 190 189 193 193 195 199 196 192 178 164 154 155 159 159 162 163 167 172 169 163 163 161 170 173 164 160 161 163 166 157 156 148 155 176 183 189 186 174 164 174 176 175 167 151 163 177 169 173 172 178 174 176 177 188 194 152 140 90 138 179 181 170 142 50
206 204 207 203 206 216 212 219 216 194 178 187 188 184 187 189 188 191 189 190 189 189 191 194 194 198 200 193 192 182 168 168 170 170 171 171 170 173 165 150 158 153 159 161 172 166 156 155 153 148 153 147 162 167 166 169 157 148 152 159 153 143 146 157 160 157 168 172 184 192 192 188 182 182 184 174 178 192 171 161 151 127 70 52 59
202 205 205 202 203 204 204 211 201 181 184 189 192 191 189 188 189 189 194 191 190 188 192 194 196 200 195 193 193 179 176 173 174 172 173 173 172 166 165 166 154 157 174 172 182 170 158 150 154 155 155 164 154 149 150 150 154 155 156 149 151 161 171 167 172 183 173 178 190 187 172 181 198 189 152 171 163 131 138 118 48 54 148 136 43
206 203 202 202 203 204 205 206 199 192 191 192 191 190 189 190 191 194 198 190 186 188 192 194 200 198 192 191 188 177 180 178 179 174 176 175 172 171 175 173 174 178 173 181 169 165 165 166 163 164 155 147 146 146 145 153 155 153 152 147 154 155 145 159 160 149 151 144 140 150 169 172 172 169 162 149 156 142 151 148 137 52 65 115 30
219 211 206 203 204 203 205 205 200 195 196 195 191 191 189 190 190 197 195 189 189 192 191 196 199 194 191 190 184 179 179 180 180 176 173 174 173 171 178 170 172 180 174 154 158 164 161 157 160 152 149 147 137 136 131 137 136 117 121 123 118 136 133 132 136 146 147 151 149 148 140 136 153 157 155 173 165 177 162 156 141 125 58 42 55
216 219 217 212 206 205 207 206 201 199 198 196 193 189 189 193 193 195 193 190 189 189 193 196 194 189 189 188 185 179 178 176 176 178 181 173 168 173 175 174 176 163 149 155 162 160 159 158 154 152 146 143 140 139 145 144 143 130 118 125 119 122 128 127 133 131 136 143 134 129 117 125 133 137 130 135 155 153 149 158 155 152 145 144 39
214 215 217 215 212 209 207 204 202 200 198 197 195 191 193 192 193 193 193 188 190 193 193 191 189 187 191 185 179 180 180 182 181 178 174 168 169 171 169 170 158 157 156 159 157 161 159 158 154 149 149 143 138 142 144 143 141 136 137 136 128 123 113 128 135 132 132 129 119 129 121 125 118 104 94 99 115 112 140 162 171 165 161 142 163
217 214 213 213 211 209 205 205 202 200 198 197 197 197 197 194 191 189 187 189 193 191 189 188 189 189 184 184 184 183 182 181 177 174 168 161 165 162 150 153 170 166 159 160 157 156 158 156 149 149 144 141 143 140 141 141 133 122 130 121 127 127 113 103 121 129 131 122 114 103 113 109 112 98 97 94 89 99 108 139 140 139 156 156 161
221 222 220 218 216 214 211 208 204 201 199 199 199 196 195 193 192 190 191 194 190 187 187 187 187 189 187 186 181 180 181 178 174 170 167 167 167 166 167 169 156 155 153 153 156 159 158 152 149 143 143 141 136 143 142 141 138 126 127 124 130 129 127 126 134 129 137 126 121 114 112 108 111 103 92 81 70 81 85 92 85 128 155 146 150
222 218 219 218 215 212 209 208 206 203 202 201 195 189 194 195 191 191 192 181 178 187 188 189 189 186 184 180 181 180 177 176 173 170 173 175 172 167 164 161 169 163 162 159 161 163 160 152 150 145 143 136 141 145 148 141 134 137 137 135 142 135 130 136 132 119 129 128 124 119 121 123 121 102 84 70 77 69 87 83 83 95 83 123 132
229 217 215 218 219 216 213 212 210 206 203 195 186 187 192 189 191 189 184 185 188 190 186 190 184 186 180 182 181 177 177 173 171 175 175 176 172 170 170 169 157 166 158 161 164 163 160 154 149 152 151 151 151 150 149 140 132 130 133 136 141 142 134 134 129 119 113 124 122 116 117 114 129 105 99 91 77 71 68 67 72 81 90 102 119
240 237 230 222 219 219 218 212 212 205 190 183 189 190 185 185 192 190 187 189 188 186 188 187 186 185 183 181 177 175 171 172 172 176 177 175 174 173 170 158 166 164 164 164 163 158 155 153 153 152 154 151 153 152 149 145 138 136 137 148 147 143 137 135 135 132 132 118 126 118 115 108 107 110 111 96 103 90 79 74 43 70 77 76 74
252 240 233 228 222 217 213 213 207 193 187 188 187 187 189 192 189 187 189 193 190 190 188 182 181 182 182 176 171 173 173 174 174 177 179 177 176 172 169 168 168 163 167 166 161 157 155 154 151 152 151 153 156 155 158 153 151 151 150 158 160 154 150 145 144 142 139 132 120 120 126 122 117 101 94 96 94 93 82 86 77 49 75 63 56
243 248 239 232 225 219 216 216 203 192 186 186 187 189 192 191 189 189 194 193 188 184 182 181 182 182 176 172 176 175 174 176 177 178 178 177 173 174 172 172 170 162 164 163 158 154 152 155 153 151 154 153 153 158 158 162 158 156 156 158 161 160 153 151 147 145 145 144 137 124 136 131 121 111 110 105 85 92 95 96 87 60 79 77 62
263 242 236 233 226 220 217 207 188 191 192 188 187 189 190 190 189 191 196 189 185 181 180 183 181 178 176 176 178 176 178 178 178 176 176 173 174 173 173 171 164 167 165 154 155 153 154 158 160 159 151 160 165 160 158 159 161 162 161 160 160 152 149 148 151 151 152 146 142 138 143 134 128 117 119 111 121 107 102 102 98 84 87 82 71
267 261 243 231 225 224 216 197 192 191 190 191 190 189 191 191 192 194 189 181 184 180 183 180 179 178 179 179 179 180 181 180 177 175 174 173 172 173 174 174 169 166 163 165 161 164 166 167 164 165 164 161 159 163 164 163 161 158 156 156 151 149 147 147 147 148 144 146 143 140 143 142 139 136 144 131 127 124 117 112 114 104 96 83 88
268 253 249 247 247 229 217 204 197 191 187 190 193 192 190 189 192 189 185 184 182 179 180 180 181 182 181 182 181 184 181 178 176 175 172 172 173 173 175 175 171 166 165 165 167 165 171 166 165 160 160 158 159 161 162 162 159 155 153 147 143 142 142 142 145 143 141 140 141 140 143 151 145 142 144 151 142 135 130 134 136 134 123 109 101
256 243 247 239 232 226 214 204 200 198 193 189 190 193 192 189 188 186 183 180 180 180 180 182 182 184 185 185 185 180 177 176 174 173 175 176 174 173 176 171 166 167 169 168 167 171 166 164 161 163 160 155 154 157 161 161 158 157 152 152 150 146 142 139 137 136 136 141 145 148 149 157 154 153 148 152 149 144 133 129 139 125 132 117 118
284 247 219 228 223 214 208 199 197 192 192 191 186 185 186 189 187 183 180 183 180 179 181 183 184 187 188 183 178 176 173 171 171 174 177 179 180 174 169 166 169 169 170 171 168 162 156 156 151 153 153 155 158 164 165 161 156 158 155 151 152 149 149 146 139 133 133 138 143 151 157 158 163 161 161 157 166 154 145 144 164 147 138 126 119
280 285 229 212 214 203 201 200 194 191 190 188 188 187 186 184 185 184 184 182 175 181 182 183 187 189 183 177 175 172 172 170 172 177 179 177 175 171 166 164 169 168 165 162 163 164 162 159 156 156 156 158 165 164 170 166 163 158 157 152 150 153 155 152 145 136 137 145 157 156 168 172 167 161 157 159 161 167 162 154 158 159 146 136 140
276 280 262 202 203 197 195 195 198 196 193 191 190 188 186 186 183 181 183 180 178 181 182 185 187 184 177 173 172 173 171 174 176 176 176 175 174 169 168 166 164 165 165 164 164 164 162 160 160 158 163 168 167 173 170 167 162 156 153 156 157 159 159 155 151 151 151 157 159 164 168 176 170 159 155 161 163 163 157 149 156 168 163 152 149
276 277 281 204 183 193 197 203 196 193 193 192 190 186 182 185 181 183 182 176 179 182 185 186 184 176 174 174 173 171 173 175 173 177 176 175 170 168 167 167 164 165 170 166 167 170 163 157 159 165 168 170 172 173 167 168 163 161 160 159 159 158 163 164 160 158 156 156 159 162 180 175 153 159 151 154 160 160 161 163 172 181 187 180 169
287 290 288 269 184 184 192 197 195 192 191 190 183 182 190 186 182 183 172 174 182 184 184 183 179 176 175 173 170 171 174 173 176 175 173 170 169 171 170 169 172 168 159 168 173 163 163 163 164 166 171 173 174 170 168 167 165 165 163 157 161 158 157 155 157 158 155 151 149 167 168 168 161 160 146 148 153 149 145 163 179 206 218 215 214
279 279 286 290 220 163 182 187 188 189 185 178 180 185 184 177 170 159 170 179 182 184 183 182 178 177 174 171 170 171 174 175 173 172 171 172 171 176 176 181 173 162 167 170 170 174 171 167 168 169 175 176 172 170 168 168 168 167 165 158 157 156 156 158 160 162 164 161 164 172 165 153 165 153 148 154 157 148 147 146 189 214 230 237 222
265 281 285 285 254 167 162 168 172 168 167 165 177 177 169 165 165 169 177 178 181 181 184 181 179 176 171 170 171 173 173 173 173 172 173 175 176 175 175 175 175 169 166 172 176 179 179 170 169 173 169 171 177 167 170 169 169 167 165 159 158 157 158 163 165 166 170 168 177 177 168 163 164 168 166 168 161 160 157 168 178 200 222 227 224
229 234 249 244 226 191 181 184 177 163 166 169 170 165 163 167 166 170 175 180 181 182 181 176 176 175 174 172 171 172 171 170 174 176 174 176 178 178 177 171 166 169 175 169 177 189 177 171 170 167 167 173 170 167 170 169 167 166 164 164 160 157 162 165 171 174 173 174 174 175 169 168 172 175 181 176 171 156 156 162 178 189 218 228 238
249 222 220 224 217 229 217 171 166 166 164 169 162 162 165 165 171 175 175 180 179 180 178 175 176 174 172 171 170 169 173 174 171 174 181 179 178 178 172 166 167 173 174 176 182 189 187 176 167 167 169 171 165 173 171 168 167 166 165 161 160 159 166 170 174 176 175 171 178 183 174 169 177 186 174 173 168 158 164 170 179 185 191 201 214
262 278 284 259 214 189 187 185 173 173 172 162 157 158 161 168 173 173 173 175 177 179 176 172 174 172 172 170 171 169 170 174 174 178 181 185 180 171 166 168 174 175 181 184 177 168 167 175 165 166 172 168 170 175 172 168 166 170 164 155 161 164 171 175 172 177 176 176 187 189 179 172 176 187 173 181 168 167 173 176 176 177 190 210 224
236 235 250 234 217 188 180 182 176 173 175 162 159 159 161 168 169 170 172 176 181 180 177 177 176 171 167 168 170 171 168 171 183 187 182 180 177 173 168 172 179 172 171 162 156 157 167 174 178 169 160 164 164 171 171 167 169 170 165 161 163 168 169 175 171 177 181 175 186 197 186 175 180 187 179 179 175 179 181 177 180 171 195 211 221
236 229 236 239 209 173 163 170 180 186 171 162 159 160 162 163 169 167 176 185 189 191 187 176 162 158 162 165 168 171 176 177 181 180 181 179 164 156 166 171 153 160 166 166 160 160 158 164 162 163 175 172 162 168 176 171 171 172 168 164 171 166 174 176 181 171 166 188 188 192 190 186 194 189 180 180 181 186 184 181 152 176 189 224 210
295 306 281 211 185 189 189 187 186 169 161 161 158 160 166 172 173 178 186 191 186 176 172 172 164 161 163 167 170 173 178 186 183 178 173 168 165 166 164 158 161 165 151 133 128 133 142 160 179 176 169 175 172 167 177 174 174 175 173 164 174 177 177 175 176 179 182 182 186 188 193 191 198 196 190 187 186 192 192 170 183 188 201 203 141
247 273 274 208 181 191 206 209 192 166 162 162 168 175 181 178 178 188 194 170 152 169 170 167 168 169 168 167 171 178 180 183 184 172 164 163 165 162 163 166 169 159 152 152 155 154 160 165 165 173 172 169 168 172 166 180 178 177 174 171 172 186 180 172 174 184 182 186 185 186 190 190 190 194 195 195 195 195 192 178 197 206 172 151 158
126 174 255 198 190 197 197 192 179 176 169 171 172 180 185 184 191 192 156 144 162 163 166 170 171 173 172 170 170 175 183 184 178 168 157 145 152 161 167 167 163 156 157 159 160 157 151 145 153 166 167 159 165 178 172 176 183 178 180 180 179 179 178 173 177 184 189 189 182 184 187 181 186 193 196 197 199 197 186 203 205 184 172 170 142
219 172 211 208 210 205 207 182 173 174 175 175 179 181 185 189 204 168 162 171 171 167 163 169 180 184 175 170 172 177 183 185 176 153 141 143 161 168 167 169 165 159 158 158 158 154 151 159 167 162 156 162 171 175 183 177 176 181 181 182 184 182 173 184 181 191 186 178 177 184 190 187 189 193 195 197 200 188 191 205 193 176 167 166 154
179 181 220 217 198 205 199 180 177 176 179 182 186 187 185 201 189 147 173 171 164 159 162 168 180 180 172 172 173 179 186 184 171 154 145 151 155 159 163 172 166 164 163 163 165 161 166 171 164 168 167 167 169 175 171 179 177 180 181 185 190 182 184 177 181 191 174 180 186 185 189 186 190 192 197 197 193 192 201 198 178 165 163 155 173
231 95 201 189 57 279 240 168 188 180 180 185 190 186 193 209 172 173 172 170 160 156 162 160 143 153 176 174 177 182 183 181 170 164 159 158 158 161 162 166 168 173 173 164 157 162 169 170 160 159 162 164 166 172 173 172 177 183 184 190 189 186 184 186 187 182 181 178 181 186 187 187 188 192 183 178 187 197 199 183 171 167 167 172 172
301 231 145 58 22 14 31 43 176 188 178 178 187 200 203 160 181 174 159 145 145 149 157 159 169 181 178 172 172 179 176 171 171 159 158 162 162 164 167 173 177 169 158 148 149 160 172 159 163 171 162 159 168 176 172 167 172 176 186 179 180 191 188 181 178 154 156 171 184 181 185 183 183 186 190 190 184 166 157 166 165 175 176 179 177
325 319 326 117 107 29 34 111 167 212 173 168 175 187 177 164 155 145 138 140 149 163 167 173 174 174 173 172 172 170 173 180 174 160 156 160 166 166 165 171 174 158 137 134 151 167 161 170 182 163 160 161 168 176 182 180 181 178 172 169 179 176 176 176 163 162 163 155 142 134 119 108 109 103 143 105 159 165 177 167 176 179 186 183 184
7 7 357 349 126 117 96 89 95 72 105 142 167 147 144 145 141 135 140 146 158 163 164 166 168 167 174 177 177 181 181 172 166 163 165 166 167 168 167 168 142 145 161 166 176 179 178 172 157 163 163 175 174 188 206 186 172 169 167 170 180 183 171 177 175 148 114 95 107 129 135 143 149 157 159 183 177 173 186 186 173 178 182 181 177
18 45 64 63 42 77 97 99 94 87 93 90 78 94 121 136 138 143 148 157 161 163 164 166 165 173 174 175 175 174 167 162 156 147 132 80 42 108 152 156 156 172 168 165 163 172 171 164 167 177 176 176 191 198 144 149 161 168 176 180 182 175 174 166 156 158 149 144 162 166 177 172 170 164 177 188 189 188 186 190 202 194 183 179 190
360 62 47 57 69 88 94 92 94 90 95 96 111 142 146 153 157 160 161 159 161 163 165 154 160 176 177 180 175 160 155 145 136 135 133 131 117 66 85 116 132 146 151 150 157 128 144 167 167 164 173 93 84 115 153 164 162 173 176 178 174 173 169 162 152 140 142 160 165 176 185 187 184 181 189 196 191 184 195 196 199 189 192 194 197